Location: Unspecified
(0.0000°N, 0.0000°E)
Time: 05:25:43
(UTC-01:00)

Tiangong 2 - Visible Passes

Search period start: 19 November 2017 00:00
Search period end: 29 November 2017 00:00
Orbit: 386 x 391 km, 42.8° (Epoch: 18 November)

Date Brightness Start Highest point End Pass type
(mag) Time Alt. Az. Time Alt. Az. Time Alt. Az.
19 Nov 2.8 17:29:00 10° WNW 17:31:56 35° SW 17:34:53 10° SSE visible
21 Nov 2.5 04:01:46 10° SSW 04:04:49 42° SE 04:07:51 10° ENE visible
21 Nov 4.5 17:10:55 10° WSW 17:12:25 13° SW 17:13:57 10° SSW visible
22 Nov 4.1 03:04:34 10° S 03:06:41 16° SE 03:08:48 10° E visible
23 Nov 1.2 03:43:30 23° WSW 03:45:14 52° NW 03:48:20 10° NNE visible
